Year,Month,Day,Hour,Minute,Value (Times are PST for temperature in C)
2011,09,16,00,00,11.80
2011,09,16,00,01,11.80
2011,09,16,00,02,11.80
2011,09,16,00,03,11.70
2011,09,16,00,04,11.70
2011,09,16,00,05,11.70
2011,09,16,00,06,11.70
2011,09,16,00,07,11.70
2011,09,16,00,08,11.70
2011,09,16,00,09,11.70
2011,09,16,00,10,11.70
2011,09,16,00,11,11.70
2011,09,16,00,12,11.70
2011,09,16,00,13,11.70
2011,09,16,00,14,11.70
2011,09,16,00,15,11.60
2011,09,16,00,16,11.60
2011,09,16,00,17,11.60
2011,09,16,00,18,11.60
2011,09,16,00,19,11.60
2011,09,16,00,20,11.60
2011,09,16,00,21,11.60
2011,09,16,00,22,11.60
2011,09,16,00,23,11.60
2011,09,16,00,24,11.60
2011,09,16,00,25,11.60
2011,09,16,00,26,11.60
2011,09,16,00,27,11.60
2011,09,16,00,28,11.60
2011,09,16,00,29,11.60
2011,09,16,00,30,11.60
2011,09,16,00,31,11.60
2011,09,16,00,32,11.60
2011,09,16,00,33,11.60
2011,09,16,00,34,11.60
2011,09,16,00,35,11.60
2011,09,16,00,36,11.60
2011,09,16,00,37,11.60
2011,09,16,00,38,11.60
2011,09,16,00,39,11.60
2011,09,16,00,40,11.60
2011,09,16,00,41,11.60
2011,09,16,00,42,11.60
2011,09,16,00,43,11.60
2011,09,16,00,44,11.60
2011,09,16,00,45,11.60
2011,09,16,00,46,11.60
2011,09,16,00,47,11.60
2011,09,16,00,48,11.60
2011,09,16,00,49,11.60
2011,09,16,00,50,11.60
2011,09,16,00,51,11.60
2011,09,16,00,52,11.60
2011,09,16,00,53,11.60
2011,09,16,00,54,11.60
2011,09,16,00,55,11.60
2011,09,16,00,56,11.60
2011,09,16,00,57,11.60
2011,09,16,00,58,11.60
2011,09,16,00,59,11.60
2011,09,16,01,00,11.60
2011,09,16,01,01,11.60
2011,09,16,01,02,11.60
2011,09,16,01,03,11.60
2011,09,16,01,04,11.50
2011,09,16,01,05,11.40
2011,09,16,01,06,11.40
2011,09,16,01,07,11.60
2011,09,16,01,08,11.60
2011,09,16,01,09,11.60
2011,09,16,01,10,11.60
2011,09,16,01,11,11.60
2011,09,16,01,12,11.60
2011,09,16,01,13,11.60
2011,09,16,01,14,11.60
2011,09,16,01,15,11.60
2011,09,16,01,16,11.60
2011,09,16,01,17,11.60
2011,09,16,01,18,11.60
2011,09,16,01,19,11.60
2011,09,16,01,20,11.60
2011,09,16,01,21,11.60
2011,09,16,01,22,11.60
2011,09,16,01,23,11.60
2011,09,16,01,24,11.60
2011,09,16,01,25,11.70
2011,09,16,01,26,11.70
2011,09,16,01,27,11.70
2011,09,16,01,28,11.70
2011,09,16,01,29,11.70
2011,09,16,01,30,11.80
2011,09,16,01,31,11.80
2011,09,16,01,32,11.80
2011,09,16,01,33,11.90
2011,09,16,01,34,11.90
2011,09,16,01,35,11.90
2011,09,16,01,36,11.90
2011,09,16,01,37,11.90
2011,09,16,01,38,11.90
2011,09,16,01,39,11.90
2011,09,16,01,40,11.90
2011,09,16,01,41,11.90
2011,09,16,01,42,11.90
2011,09,16,01,43,11.90
2011,09,16,01,44,11.90
2011,09,16,01,45,11.90
2011,09,16,01,46,11.90
2011,09,16,01,47,11.90
2011,09,16,01,48,11.90
2011,09,16,01,49,11.90
2011,09,16,01,50,11.90
2011,09,16,01,51,11.90
2011,09,16,01,52,11.90
2011,09,16,01,53,11.90
2011,09,16,01,54,11.90
2011,09,16,01,55,11.90
2011,09,16,01,56,11.90
2011,09,16,01,57,11.90
2011,09,16,01,58,11.90
2011,09,16,01,59,11.80
2011,09,16,02,00,11.80
2011,09,16,02,01,11.80
2011,09,16,02,02,11.80
2011,09,16,02,03,11.80
2011,09,16,02,04,11.80
2011,09,16,02,05,11.80
2011,09,16,02,06,11.80
2011,09,16,02,07,11.80
2011,09,16,02,08,11.70
2011,09,16,02,09,11.70
2011,09,16,02,10,11.70
2011,09,16,02,11,11.60
2011,09,16,02,12,11.60
2011,09,16,02,13,11.60
2011,09,16,02,14,11.60
2011,09,16,02,15,11.60
2011,09,16,02,16,11.60
2011,09,16,02,17,11.60
2011,09,16,02,18,11.60
2011,09,16,02,19,11.60
2011,09,16,02,20,11.60
2011,09,16,02,21,11.50
2011,09,16,02,22,11.40
2011,09,16,02,23,11.40
2011,09,16,02,24,11.40
2011,09,16,02,25,11.40
2011,09,16,02,26,11.40
2011,09,16,02,27,11.40
2011,09,16,02,28,11.40
2011,09,16,02,29,11.40
2011,09,16,02,30,11.30
2011,09,16,02,31,11.30
2011,09,16,02,32,11.30
2011,09,16,02,33,11.30
2011,09,16,02,34,11.30
2011,09,16,02,35,11.30
2011,09,16,02,36,11.30
2011,09,16,02,37,11.30
2011,09,16,02,38,11.30
2011,09,16,02,39,11.20
2011,09,16,02,40,11.20
2011,09,16,02,41,11.20
2011,09,16,02,42,11.20
2011,09,16,02,43,11.10
2011,09,16,02,44,11.10
2011,09,16,02,45,11.10
2011,09,16,02,46,11.10
2011,09,16,02,47,11.10
2011,09,16,02,48,11.10
2011,09,16,02,49,11.10
2011,09,16,02,50,11.10
2011,09,16,02,51,11.10
2011,09,16,02,52,11.10
2011,09,16,02,53,11.10
2011,09,16,02,54,11.10
2011,09,16,02,55,11.10
2011,09,16,02,56,11.10
2011,09,16,02,57,11.10
2011,09,16,02,58,11.10
2011,09,16,02,59,11.10
2011,09,16,03,00,11.00
2011,09,16,03,01,10.90
2011,09,16,03,02,10.90
2011,09,16,03,03,10.90
2011,09,16,03,04,10.90
2011,09,16,03,05,10.90
2011,09,16,03,06,10.90
2011,09,16,03,07,10.90
2011,09,16,03,08,10.90
2011,09,16,03,09,10.90
2011,09,16,03,10,10.90
2011,09,16,03,11,10.90
2011,09,16,03,12,10.90
2011,09,16,03,13,10.90
2011,09,16,03,14,10.80
2011,09,16,03,15,10.80
2011,09,16,03,16,10.80
2011,09,16,03,17,10.80
2011,09,16,03,18,10.80
2011,09,16,03,19,10.70
2011,09,16,03,20,10.70
2011,09,16,03,21,10.70
2011,09,16,03,22,10.70
2011,09,16,03,23,10.70
2011,09,16,03,24,10.60
2011,09,16,03,25,10.60
2011,09,16,03,26,10.60
2011,09,16,03,27,10.60
2011,09,16,03,28,10.60
2011,09,16,03,29,10.60
2011,09,16,03,30,10.60
2011,09,16,03,31,10.50
2011,09,16,03,32,10.40
2011,09,16,03,33,10.50
2011,09,16,03,34,10.60
2011,09,16,03,35,10.60
2011,09,16,03,36,10.60
2011,09,16,03,37,10.70
2011,09,16,03,38,10.70
2011,09,16,03,39,10.70
2011,09,16,03,40,10.70
2011,09,16,03,41,10.70
2011,09,16,03,42,10.70
2011,09,16,03,43,10.70
2011,09,16,03,44,10.70
2011,09,16,03,45,10.70
2011,09,16,03,46,10.70
2011,09,16,03,47,10.60
2011,09,16,03,48,10.60
2011,09,16,03,49,10.60
2011,09,16,03,50,10.60
2011,09,16,03,51,10.60
2011,09,16,03,52,10.60
2011,09,16,03,53,10.60
2011,09,16,03,54,10.60
2011,09,16,03,55,10.60
2011,09,16,03,56,10.60
2011,09,16,03,57,10.60
2011,09,16,03,58,10.50
2011,09,16,03,59,10.40
2011,09,16,04,00,10.40
2011,09,16,04,01,10.40
2011,09,16,04,02,10.40
2011,09,16,04,03,10.40
2011,09,16,04,04,10.40
2011,09,16,04,05,10.40
2011,09,16,04,06,10.40
2011,09,16,04,07,10.40
2011,09,16,04,08,10.40
2011,09,16,04,09,10.40
2011,09,16,04,10,10.40
2011,09,16,04,11,10.40
2011,09,16,04,12,10.40
2011,09,16,04,13,10.40
2011,09,16,04,14,10.40
2011,09,16,04,15,10.30
2011,09,16,04,16,10.30
2011,09,16,04,17,10.30
2011,09,16,04,18,10.20
2011,09,16,04,19,10.20
2011,09,16,04,20,10.20
2011,09,16,04,21,10.20
2011,09,16,04,22,10.20
2011,09,16,04,23,10.20
2011,09,16,04,24,10.20
2011,09,16,04,25,10.20
2011,09,16,04,26,10.20
2011,09,16,04,27,10.20
2011,09,16,04,28,10.20
2011,09,16,04,29,10.20
2011,09,16,04,30,10.20
2011,09,16,04,31,10.20
2011,09,16,04,32,10.10
2011,09,16,04,33,10.10
2011,09,16,04,34,10.10
2011,09,16,04,35,10.10
2011,09,16,04,36,10.10
2011,09,16,04,37,10.10
2011,09,16,04,38,10.10
2011,09,16,04,39,10.10
2011,09,16,04,40,10.10
2011,09,16,04,41,10.10
2011,09,16,04,42,10.10
2011,09,16,04,43,10.10
2011,09,16,04,44,10.10
2011,09,16,04,45,10.10
2011,09,16,04,46,10.10
2011,09,16,04,47,10.10
2011,09,16,04,48,10.10
2011,09,16,04,49,10.10
2011,09,16,04,50,10.10
2011,09,16,04,51,10.10
2011,09,16,04,52,10.10
2011,09,16,04,53,10.10
2011,09,16,04,54,10.10
2011,09,16,04,55,10.20
2011,09,16,04,56,10.30
2011,09,16,04,57,10.40
2011,09,16,04,58,10.40
2011,09,16,04,59,10.50
2011,09,16,05,00,10.60
2011,09,16,05,01,10.60
2011,09,16,05,02,10.60
2011,09,16,05,03,10.60
2011,09,16,05,04,10.60
2011,09,16,05,05,10.70
2011,09,16,05,06,10.70
2011,09,16,05,07,10.70
2011,09,16,05,08,10.70
2011,09,16,05,09,10.70
2011,09,16,05,10,10.70
2011,09,16,05,11,10.70
2011,09,16,05,12,10.70
2011,09,16,05,13,10.70
2011,09,16,05,14,10.70
2011,09,16,05,15,10.70
2011,09,16,05,16,10.70
2011,09,16,05,17,10.70
2011,09,16,05,18,10.70
2011,09,16,05,19,10.60
2011,09,16,05,20,10.60
2011,09,16,05,21,10.60
2011,09,16,05,22,10.60
2011,09,16,05,23,10.60
2011,09,16,05,24,10.60
2011,09,16,05,25,10.50
2011,09,16,05,26,10.40
2011,09,16,05,27,10.40
2011,09,16,05,28,10.40
2011,09,16,05,29,10.40
2011,09,16,05,30,10.40
2011,09,16,05,31,10.30
2011,09,16,05,32,10.30
2011,09,16,05,33,10.20
2011,09,16,05,34,10.20
2011,09,16,05,35,10.20
2011,09,16,05,36,10.20
2011,09,16,05,37,10.20
2011,09,16,05,38,10.10
2011,09,16,05,39,10.10
2011,09,16,05,40,10.10
2011,09,16,05,41,10.10
2011,09,16,05,42,9.90
2011,09,16,05,43,9.90
2011,09,16,05,44,9.90
2011,09,16,05,45,9.80
2011,09,16,05,46,9.80
2011,09,16,05,47,9.70
2011,09,16,05,48,9.70
2011,09,16,05,49,9.60
2011,09,16,05,50,9.50
2011,09,16,05,51,9.50
2011,09,16,05,52,9.40
2011,09,16,05,53,9.30
2011,09,16,05,54,9.20
2011,09,16,05,55,9.10
2011,09,16,05,56,9.00
2011,09,16,05,57,8.90
2011,09,16,05,58,8.90
2011,09,16,05,59,8.80
2011,09,16,06,00,8.70
2011,09,16,06,01,8.70
2011,09,16,06,02,8.60
2011,09,16,06,03,8.60
2011,09,16,06,04,8.60
2011,09,16,06,05,8.60
2011,09,16,06,06,8.50
2011,09,16,06,07,8.50
2011,09,16,06,08,8.50
2011,09,16,06,09,8.50
2011,09,16,06,10,8.50
2011,09,16,06,11,8.40
2011,09,16,06,12,8.40
2011,09,16,06,13,8.30
2011,09,16,06,14,8.30
2011,09,16,06,15,8.20
2011,09,16,06,16,8.10
2011,09,16,06,17,8.00
2011,09,16,06,18,7.90
2011,09,16,06,19,7.80
2011,09,16,06,20,7.80
2011,09,16,06,21,7.70
2011,09,16,06,22,7.60
2011,09,16,06,23,7.60
2011,09,16,06,24,7.50
2011,09,16,06,25,7.50
2011,09,16,06,26,7.40
2011,09,16,06,27,7.40
2011,09,16,06,28,7.30
2011,09,16,06,29,7.30
2011,09,16,06,30,7.30
2011,09,16,06,31,7.30
2011,09,16,06,32,7.30
2011,09,16,06,33,7.30
2011,09,16,06,34,7.30
2011,09,16,06,35,7.30
2011,09,16,06,36,7.30
2011,09,16,06,37,7.30
2011,09,16,06,38,7.30
2011,09,16,06,39,7.30
2011,09,16,06,40,7.30
2011,09,16,06,41,7.40
2011,09,16,06,42,7.40
2011,09,16,06,43,7.50
2011,09,16,06,44,7.50
2011,09,16,06,45,7.50
2011,09,16,06,46,7.60
2011,09,16,06,47,7.60
2011,09,16,06,48,7.60
2011,09,16,06,49,7.70
2011,09,16,06,50,7.70
2011,09,16,06,51,7.70
2011,09,16,06,52,7.80
2011,09,16,06,53,7.80
2011,09,16,06,54,7.80
2011,09,16,06,55,7.80
2011,09,16,06,56,7.90
2011,09,16,06,57,8.00
2011,09,16,06,58,8.10
2011,09,16,06,59,8.40
2011,09,16,07,00,8.70
2011,09,16,07,01,8.90
2011,09,16,07,02,9.10
2011,09,16,07,03,9.30
2011,09,16,07,04,9.40
2011,09,16,07,05,9.50
2011,09,16,07,06,9.50
2011,09,16,07,07,9.60
2011,09,16,07,08,9.70
2011,09,16,07,09,9.70
2011,09,16,07,10,9.70
2011,09,16,07,11,9.80
2011,09,16,07,12,9.80
2011,09,16,07,13,9.80
2011,09,16,07,14,9.80
2011,09,16,07,15,9.90
2011,09,16,07,16,9.90
2011,09,16,07,17,9.90
2011,09,16,07,18,9.90
2011,09,16,07,19,10.00
2011,09,16,07,20,10.10
2011,09,16,07,21,10.10
2011,09,16,07,22,10.10
2011,09,16,07,23,10.10
2011,09,16,07,24,10.10
2011,09,16,07,25,10.10
2011,09,16,07,26,10.20
2011,09,16,07,27,10.20
2011,09,16,07,28,10.20
2011,09,16,07,29,10.20
2011,09,16,07,30,10.30
2011,09,16,07,31,10.30
2011,09,16,07,32,10.30
2011,09,16,07,33,10.40
2011,09,16,07,34,10.50
2011,09,16,07,35,10.60
2011,09,16,07,36,10.70
2011,09,16,07,37,10.70
2011,09,16,07,38,10.80
2011,09,16,07,39,10.80
2011,09,16,07,40,10.90
2011,09,16,07,41,10.90
2011,09,16,07,42,10.90
2011,09,16,07,43,10.90
2011,09,16,07,44,10.90
2011,09,16,07,45,10.90
2011,09,16,07,46,10.90
2011,09,16,07,47,10.90
2011,09,16,07,48,10.90
2011,09,16,07,49,10.90
2011,09,16,07,50,10.90
2011,09,16,07,51,10.90
2011,09,16,07,52,10.90
2011,09,16,07,53,10.90
2011,09,16,07,54,10.90
2011,09,16,07,55,10.90
2011,09,16,07,56,10.90
2011,09,16,07,57,10.90
2011,09,16,07,58,10.90
2011,09,16,07,59,10.90
2011,09,16,08,00,10.80
2011,09,16,08,01,10.70
2011,09,16,08,02,10.50
2011,09,16,08,03,10.40
2011,09,16,08,04,10.20
2011,09,16,08,05,10.10
2011,09,16,08,06,10.00
2011,09,16,08,07,9.90
2011,09,16,08,08,9.90
2011,09,16,08,09,9.80
2011,09,16,08,10,9.80
2011,09,16,08,11,9.70
2011,09,16,08,12,9.70
2011,09,16,08,13,9.70
2011,09,16,08,14,9.70
2011,09,16,08,15,9.70
2011,09,16,08,16,9.70
2011,09,16,08,17,9.80
2011,09,16,08,18,9.80
2011,09,16,08,19,9.90
2011,09,16,08,20,9.90
2011,09,16,08,21,9.90
2011,09,16,08,22,9.90
2011,09,16,08,23,10.00
2011,09,16,08,24,10.10
2011,09,16,08,25,10.10
2011,09,16,08,26,10.30
2011,09,16,08,27,10.40
2011,09,16,08,28,10.50
2011,09,16,08,29,10.60
2011,09,16,08,30,10.70
2011,09,16,08,31,10.90
2011,09,16,08,32,11.00
2011,09,16,08,33,11.10
2011,09,16,08,34,11.30
2011,09,16,08,35,11.40
2011,09,16,08,36,11.60
2011,09,16,08,37,11.70
2011,09,16,08,38,11.80
2011,09,16,08,39,11.90
2011,09,16,08,40,12.00
2011,09,16,08,41,12.00
2011,09,16,08,42,12.10
2011,09,16,08,43,12.20
2011,09,16,08,44,12.30
2011,09,16,08,45,12.40
2011,09,16,08,46,12.40
2011,09,16,08,47,12.50
2011,09,16,08,48,12.60
2011,09,16,08,49,12.60
2011,09,16,08,50,12.70
2011,09,16,08,51,12.80
2011,09,16,08,52,12.80
2011,09,16,08,53,12.90
2011,09,16,08,54,12.90
2011,09,16,08,55,13.00
2011,09,16,08,56,13.00
2011,09,16,08,57,13.10
2011,09,16,08,58,13.10
2011,09,16,08,59,13.20
2011,09,16,09,00,13.20
2011,09,16,09,01,13.30
2011,09,16,09,02,13.30
2011,09,16,09,03,13.30
2011,09,16,09,04,13.30
2011,09,16,09,05,13.30
2011,09,16,09,06,13.30
2011,09,16,09,07,13.30
2011,09,16,09,08,13.40
2011,09,16,09,09,13.40
2011,09,16,09,10,13.50
2011,09,16,09,11,13.50
2011,09,16,09,12,13.50
2011,09,16,09,13,13.60
2011,09,16,09,14,13.70
2011,09,16,09,15,13.70
2011,09,16,09,16,13.70
2011,09,16,09,17,13.70
2011,09,16,09,18,13.70
2011,09,16,09,19,13.70
2011,09,16,09,20,13.70
2011,09,16,09,21,13.70
2011,09,16,09,22,13.70
2011,09,16,09,23,13.70
2011,09,16,09,24,13.80
2011,09,16,09,25,13.80
2011,09,16,09,26,13.80
2011,09,16,09,27,13.80
2011,09,16,09,28,13.80
2011,09,16,09,29,13.80
2011,09,16,09,30,13.70
2011,09,16,09,31,13.70
2011,09,16,09,32,13.70
2011,09,16,09,33,13.70
2011,09,16,09,34,13.70
2011,09,16,09,35,13.70
2011,09,16,09,36,13.80
2011,09,16,09,37,13.80
2011,09,16,09,38,13.90
2011,09,16,09,39,13.90
2011,09,16,09,40,13.90
2011,09,16,09,41,14.00
2011,09,16,09,42,14.00
2011,09,16,09,43,14.10
2011,09,16,09,44,14.20
2011,09,16,09,45,14.20
2011,09,16,09,46,14.30
2011,09,16,09,47,14.40
2011,09,16,09,48,14.50
2011,09,16,09,49,14.50
2011,09,16,09,50,14.50
2011,09,16,09,51,14.50
2011,09,16,09,52,14.60
2011,09,16,09,53,14.60
2011,09,16,09,54,14.70
2011,09,16,09,55,14.70
2011,09,16,09,56,14.80
2011,09,16,09,57,14.80
2011,09,16,09,58,14.80
2011,09,16,09,59,14.80
2011,09,16,10,00,14.80
2011,09,16,10,01,14.80
2011,09,16,10,02,14.80
2011,09,16,10,03,14.90
2011,09,16,10,04,14.90
2011,09,16,10,05,14.90
2011,09,16,10,06,14.90
2011,09,16,10,07,15.00
2011,09,16,10,08,15.00
2011,09,16,10,09,14.90
2011,09,16,10,10,14.90
2011,09,16,10,11,14.90
2011,09,16,10,12,14.90
2011,09,16,10,13,14.80
2011,09,16,10,14,14.80
2011,09,16,10,15,14.80
2011,09,16,10,16,14.80
2011,09,16,10,17,14.90
2011,09,16,10,18,15.00
2011,09,16,10,19,15.10
2011,09,16,10,20,15.10
2011,09,16,10,21,15.10
2011,09,16,10,22,15.20
2011,09,16,10,23,15.30
2011,09,16,10,24,15.30
2011,09,16,10,25,15.30
2011,09,16,10,26,15.30
2011,09,16,10,27,15.40
2011,09,16,10,28,15.40
2011,09,16,10,29,15.40
2011,09,16,10,30,15.50
2011,09,16,10,31,15.50
2011,09,16,10,32,15.50
2011,09,16,10,33,15.50
2011,09,16,10,34,15.50
2011,09,16,10,35,15.40
2011,09,16,10,36,15.30
2011,09,16,10,37,15.30
2011,09,16,10,38,15.30
2011,09,16,10,39,15.30
2011,09,16,10,40,15.30
2011,09,16,10,41,15.30
2011,09,16,10,42,15.40
2011,09,16,10,43,15.50
2011,09,16,10,44,15.50
2011,09,16,10,45,15.30
2011,09,16,10,46,15.30
2011,09,16,10,47,15.30
2011,09,16,10,48,15.40
2011,09,16,10,49,15.50
2011,09,16,10,50,15.40
2011,09,16,10,51,15.40
2011,09,16,10,52,15.30
2011,09,16,10,53,15.30
2011,09,16,10,54,15.30
2011,09,16,10,55,15.30
2011,09,16,10,56,15.20
2011,09,16,10,57,15.20
2011,09,16,10,58,15.20
2011,09,16,10,59,15.20
2011,09,16,11,00,15.20
2011,09,16,11,01,15.20
2011,09,16,11,02,15.30
2011,09,16,11,03,15.30
2011,09,16,11,04,15.30
2011,09,16,11,05,15.40
2011,09,16,11,06,15.50
2011,09,16,11,07,15.50
2011,09,16,11,08,15.60
2011,09,16,11,09,15.60
2011,09,16,11,10,15.70
2011,09,16,11,11,15.80
2011,09,16,11,12,15.80
2011,09,16,11,13,15.90
2011,09,16,11,14,15.90
2011,09,16,11,15,15.90
2011,09,16,11,16,15.90
2011,09,16,11,17,15.90
2011,09,16,11,18,15.90
2011,09,16,11,19,15.80
2011,09,16,11,20,15.80
2011,09,16,11,21,15.80
2011,09,16,11,22,15.90
2011,09,16,11,23,16.00
2011,09,16,11,24,16.10
2011,09,16,11,25,16.10
2011,09,16,11,26,16.10
2011,09,16,11,27,16.10
2011,09,16,11,28,16.20
2011,09,16,11,29,16.20
2011,09,16,11,30,16.30
2011,09,16,11,31,16.40
2011,09,16,11,32,16.40
2011,09,16,11,33,16.40
2011,09,16,11,34,16.40
2011,09,16,11,35,16.40
2011,09,16,11,36,16.40
2011,09,16,11,37,16.40
2011,09,16,11,38,16.40
2011,09,16,11,39,16.40
2011,09,16,11,40,16.40
2011,09,16,11,41,16.40
2011,09,16,11,42,16.40
2011,09,16,11,43,16.40
2011,09,16,11,44,16.40
2011,09,16,11,45,16.60
2011,09,16,11,46,16.60
2011,09,16,11,47,16.60
2011,09,16,11,48,16.50
2011,09,16,11,49,16.40
2011,09,16,11,50,16.40
2011,09,16,11,51,16.40
2011,09,16,11,52,16.40
2011,09,16,11,53,16.50
2011,09,16,11,54,16.60
2011,09,16,11,55,16.70
2011,09,16,11,56,16.70
2011,09,16,11,57,16.80
2011,09,16,11,58,16.90
2011,09,16,11,59,16.90
2011,09,16,12,00,17.00
2011,09,16,12,01,17.10
2011,09,16,12,02,17.10
2011,09,16,12,03,17.20
2011,09,16,12,04,17.20
2011,09,16,12,05,17.30
2011,09,16,12,06,17.30
2011,09,16,12,07,17.30
2011,09,16,12,08,17.30
2011,09,16,12,09,17.30
2011,09,16,12,10,17.30
2011,09,16,12,11,17.30
2011,09,16,12,12,17.30
2011,09,16,12,13,17.30
2011,09,16,12,14,17.30
2011,09,16,12,15,17.30
2011,09,16,12,16,17.30
2011,09,16,12,17,17.30
2011,09,16,12,18,17.20
2011,09,16,12,19,17.10
2011,09,16,12,20,17.00
2011,09,16,12,21,17.00
2011,09,16,12,22,16.90
2011,09,16,12,23,16.90
2011,09,16,12,24,16.90
2011,09,16,12,25,16.80
2011,09,16,12,26,16.80
2011,09,16,12,27,16.80
2011,09,16,12,28,16.90
2011,09,16,12,29,16.90
2011,09,16,12,30,17.00
2011,09,16,12,31,17.00
2011,09,16,12,32,17.10
2011,09,16,12,33,17.20
2011,09,16,12,34,17.10
2011,09,16,12,35,17.10
2011,09,16,12,36,17.10
2011,09,16,12,37,17.00
2011,09,16,12,38,17.00
2011,09,16,12,39,17.00
2011,09,16,12,40,17.10
2011,09,16,12,41,17.00
2011,09,16,12,42,17.00
2011,09,16,12,43,17.10
2011,09,16,12,44,17.00
2011,09,16,12,45,17.00
2011,09,16,12,46,16.90
2011,09,16,12,47,16.90
2011,09,16,12,48,16.90
2011,09,16,12,49,17.00
2011,09,16,12,50,17.00
2011,09,16,12,51,17.00
2011,09,16,12,52,17.00
2011,09,16,12,53,17.00
2011,09,16,12,54,17.00
2011,09,16,12,55,17.00
2011,09,16,12,56,17.10
2011,09,16,12,57,17.10
2011,09,16,12,58,17.20
2011,09,16,12,59,17.20
2011,09,16,13,00,17.10
2011,09,16,13,01,17.10
2011,09,16,13,02,17.10
2011,09,16,13,03,17.10
2011,09,16,13,04,17.10
2011,09,16,13,05,17.10
2011,09,16,13,06,17.10
2011,09,16,13,07,17.20
2011,09,16,13,08,17.10
2011,09,16,13,09,17.10
2011,09,16,13,10,17.10
2011,09,16,13,11,17.10
2011,09,16,13,12,17.20
2011,09,16,13,13,17.20
2011,09,16,13,14,17.20
2011,09,16,13,15,17.20
2011,09,16,13,16,17.20
2011,09,16,13,17,17.20
2011,09,16,13,18,17.20
2011,09,16,13,19,17.20
2011,09,16,13,20,17.20
2011,09,16,13,21,17.20
2011,09,16,13,22,17.20
2011,09,16,13,23,17.10
2011,09,16,13,24,17.00
2011,09,16,13,25,17.00
2011,09,16,13,26,16.90
2011,09,16,13,27,16.80
2011,09,16,13,28,16.80
2011,09,16,13,29,16.70
2011,09,16,13,30,16.70
2011,09,16,13,31,16.70
2011,09,16,13,32,16.70
2011,09,16,13,33,16.60
2011,09,16,13,34,16.60
2011,09,16,13,35,16.60
2011,09,16,13,36,16.60
2011,09,16,13,37,16.60
2011,09,16,13,38,16.60
2011,09,16,13,39,16.50
2011,09,16,13,40,16.40
2011,09,16,13,41,16.40
2011,09,16,13,42,16.40
2011,09,16,13,43,16.40
2011,09,16,13,44,16.40
2011,09,16,13,45,16.40
2011,09,16,13,46,16.40
2011,09,16,13,47,16.40
2011,09,16,13,48,16.40
2011,09,16,13,49,16.40
2011,09,16,13,50,16.40
2011,09,16,13,51,16.40
2011,09,16,13,52,16.40
2011,09,16,13,53,16.40
2011,09,16,13,54,16.30
2011,09,16,13,55,16.30
2011,09,16,13,56,16.30
2011,09,16,13,57,16.40
2011,09,16,13,58,16.40
2011,09,16,13,59,16.40
2011,09,16,14,00,16.40
2011,09,16,14,01,16.40
2011,09,16,14,02,16.40
2011,09,16,14,03,16.40
2011,09,16,14,04,16.40
2011,09,16,14,05,16.40
2011,09,16,14,06,16.40
2011,09,16,14,07,16.40
2011,09,16,14,08,16.40
2011,09,16,14,09,16.50
2011,09,16,14,10,16.60
2011,09,16,14,11,16.60
2011,09,16,14,12,16.70
2011,09,16,14,13,16.70
2011,09,16,14,14,16.70
2011,09,16,14,15,16.60
2011,09,16,14,16,16.60
2011,09,16,14,17,16.50
2011,09,16,14,18,16.40
2011,09,16,14,19,16.40
2011,09,16,14,20,16.30
2011,09,16,14,21,16.20
2011,09,16,14,22,16.10
2011,09,16,14,23,16.10
2011,09,16,14,24,16.10
2011,09,16,14,25,16.00
2011,09,16,14,26,15.90
2011,09,16,14,27,15.90
2011,09,16,14,28,16.00
2011,09,16,14,29,16.10
2011,09,16,14,30,16.10
2011,09,16,14,31,16.10
2011,09,16,14,32,16.10
2011,09,16,14,33,16.10
2011,09,16,14,34,16.10
2011,09,16,14,35,16.10
2011,09,16,14,36,16.10
2011,09,16,14,37,16.00
2011,09,16,14,38,15.90
2011,09,16,14,39,15.90
2011,09,16,14,40,15.90
2011,09,16,14,41,15.90
2011,09,16,14,42,15.90
2011,09,16,14,43,15.90
2011,09,16,14,44,15.90
2011,09,16,14,45,15.90
2011,09,16,14,46,16.00
2011,09,16,14,47,16.10
2011,09,16,14,48,15.90
2011,09,16,14,49,15.90
2011,09,16,14,50,15.90
2011,09,16,14,51,15.80
2011,09,16,14,52,15.80
2011,09,16,14,53,15.80
2011,09,16,14,54,15.80
2011,09,16,14,55,15.80
2011,09,16,14,56,15.80
2011,09,16,14,57,15.80
2011,09,16,14,58,15.80
2011,09,16,14,59,15.80
2011,09,16,15,00,15.80
2011,09,16,15,01,15.90
2011,09,16,15,02,15.90
2011,09,16,15,03,15.90
2011,09,16,15,04,16.00
2011,09,16,15,05,16.10
2011,09,16,15,06,16.10
2011,09,16,15,07,16.10
2011,09,16,15,08,16.10
2011,09,16,15,09,16.10
2011,09,16,15,10,16.20
2011,09,16,15,11,16.20
2011,09,16,15,12,16.30
2011,09,16,15,13,16.30
2011,09,16,15,14,16.30
2011,09,16,15,15,16.30
2011,09,16,15,16,16.30
2011,09,16,15,17,16.30
2011,09,16,15,18,16.30
2011,09,16,15,19,16.30
2011,09,16,15,20,16.20
2011,09,16,15,21,16.10
2011,09,16,15,22,16.10
2011,09,16,15,23,16.10
2011,09,16,15,24,16.10
2011,09,16,15,25,16.10
2011,09,16,15,26,16.10
2011,09,16,15,27,16.10
2011,09,16,15,28,16.10
2011,09,16,15,29,16.00
2011,09,16,15,30,15.90
2011,09,16,15,31,15.90
2011,09,16,15,32,15.80
2011,09,16,15,33,15.80
2011,09,16,15,34,15.70
2011,09,16,15,35,15.70
2011,09,16,15,36,15.70
2011,09,16,15,37,15.70
2011,09,16,15,38,15.70
2011,09,16,15,39,15.60
2011,09,16,15,40,15.60
2011,09,16,15,41,15.60
2011,09,16,15,42,15.50
2011,09,16,15,43,15.60
2011,09,16,15,44,15.60
2011,09,16,15,45,15.60
2011,09,16,15,46,15.70
2011,09,16,15,47,15.80
2011,09,16,15,48,15.80
2011,09,16,15,49,15.80
2011,09,16,15,50,16.00
2011,09,16,15,51,16.10
2011,09,16,15,52,16.20
2011,09,16,15,53,16.30
2011,09,16,15,54,16.40
2011,09,16,15,55,16.50
2011,09,16,15,56,16.60
2011,09,16,15,57,16.70
2011,09,16,15,58,16.70
2011,09,16,15,59,16.70
2011,09,16,16,00,16.70
2011,09,16,16,01,16.60
2011,09,16,16,02,16.60
2011,09,16,16,03,16.50
2011,09,16,16,04,16.40
2011,09,16,16,05,16.40
2011,09,16,16,06,16.40
2011,09,16,16,07,16.40
2011,09,16,16,08,16.40
2011,09,16,16,09,16.50
2011,09,16,16,10,16.60
2011,09,16,16,11,16.60
2011,09,16,16,12,16.60
2011,09,16,16,13,16.70
2011,09,16,16,14,16.70
2011,09,16,16,15,16.70
2011,09,16,16,16,16.70
2011,09,16,16,17,16.70
2011,09,16,16,18,16.60
2011,09,16,16,19,16.60
2011,09,16,16,20,16.50
2011,09,16,16,21,16.40
2011,09,16,16,22,16.40
2011,09,16,16,23,16.40
2011,09,16,16,24,16.40
2011,09,16,16,25,16.40
2011,09,16,16,26,16.40
2011,09,16,16,27,16.40
2011,09,16,16,28,16.30
2011,09,16,16,29,16.30
2011,09,16,16,30,16.30
2011,09,16,16,31,16.30
2011,09,16,16,32,16.30
2011,09,16,16,33,16.30
2011,09,16,16,34,16.30
2011,09,16,16,35,16.20
2011,09,16,16,36,16.20
2011,09,16,16,37,16.10
2011,09,16,16,38,16.10
2011,09,16,16,39,16.10
2011,09,16,16,40,16.10
2011,09,16,16,41,16.10
2011,09,16,16,42,16.10
2011,09,16,16,43,16.00
2011,09,16,16,44,15.90
2011,09,16,16,45,15.90
2011,09,16,16,46,15.90
2011,09,16,16,47,15.80
2011,09,16,16,48,15.80
2011,09,16,16,49,15.80
2011,09,16,16,50,15.80
2011,09,16,16,51,15.80
2011,09,16,16,52,15.90
2011,09,16,16,53,15.90
2011,09,16,16,54,15.90
2011,09,16,16,55,15.90
2011,09,16,16,56,15.90
2011,09,16,16,57,15.90
2011,09,16,16,58,15.90
2011,09,16,16,59,15.90
2011,09,16,17,00,15.90
2011,09,16,17,01,15.90
2011,09,16,17,02,15.90
2011,09,16,17,03,15.90
2011,09,16,17,04,15.90
2011,09,16,17,05,15.90
2011,09,16,17,06,15.90
2011,09,16,17,07,15.90
2011,09,16,17,08,15.90
2011,09,16,17,09,15.90
2011,09,16,17,10,15.90
2011,09,16,17,11,15.80
2011,09,16,17,12,15.80
2011,09,16,17,13,15.90
2011,09,16,17,14,15.90
2011,09,16,17,15,15.90
2011,09,16,17,16,15.90
2011,09,16,17,17,15.90
2011,09,16,17,18,16.00
2011,09,16,17,19,16.10
2011,09,16,17,20,16.10
2011,09,16,17,21,16.10
2011,09,16,17,22,16.10
2011,09,16,17,23,16.10
2011,09,16,17,24,16.00